Temp
-18 -18 -18 -18 -18 -18 -18 -17 -16 -16 -16 -16 -16 -16 -16 -15 -15 -15 -15 -15 -15 -15 -15 -14 -14 -14 -14 -13 -13 -13 -13 -13 -13 -13 -13 -13 -13 -13 -13 -13 -13 -13 -13 -13
-18 -18 -19 -19 -19 -19 -18 -17 -17 -17 -17 -17 -16 -16 -16 -16 -15 -15 -15 -15 -15 -15 -14 -14 -14 -14 -14 -14 -14 -13 -13 -13 -13 -13 -14 -14 -14 -14 -14 -14 -14 -14 -14 -13
-19 -19 -19 -19 -19 -19 -18 -18 -18 -17 -18 -18 -18 -17 -16 -16 -16 -15 -15 -15 -15 -15 -15 -14 -14 -14 -14 -14 -14 -14 -14 -14 -14 -14 -14 -14 -14 -14 -14 -14 -14 -14 -14 -14
-19 -19 -19 -19 -19 -19 -19 -19 -19 -19 -18 -18 -18 -16 -16 -16 -16 -15 -15 -15 -15 -15 -15 -15 -14 -14 -14 -14 -14 -14 -14 -14 -14 -14 -14 -14 -14 -14 -14 -14 -14 -14 -14 -14
-18 -19 -19 -18 -18 -19 -19 -19 -19 -19 -18 -18 -17 -17 -15 -16 -16 -16 -16 -16 -15 -15 -15 -15 -15 -15 -15 -15 -15 -15 -15 -15 -15 -15 -14 -14 -14 -14 -14 -14 -14 -14 -14 -14
-19 -19 -19 -19 -19 -19 -20 -20 -20 -19 -19 -18 -17 -17 -16 -16 -16 -16 -16 -16 -16 -16 -16 -15 -15 -15 -15 -15 -15 -15 -15 -15 -15 -15 -15 -15 -15 -14 -14 -14 -14 -14 -14 -14
-18 -18 -18 -19 -19 -19 -19 -19 -20 -19 -18 -16 -17 -17 -15 -15 -16 -16 -16 -16 -16 -16 -16 -16 -16 -15 -15 -15 -15 -15 -15 -15 -15 -15 -15 -15 -15 -15 -15 -14 -14 -14 -14 -14
-19 -18 -18 -18 -19 -19 -18 -19 -18 -18 -17 -16 -17 -16 -15 -16 -16 -16 -17 -17 -16 -16 -16 -16 -16 -16 -16 -16 -16 -16 -16 -16 -15 -15 -15 -15 -15 -15 -15 -15 -15 -15 -15 -15
-18 -18 -18 -19 -19 -19 -19 -18 -19 -19 -18 -18 -17 -16 -16 -16 -16 -17 -17 -17 -17 -17 -17 -17 -17 -16 -16 -16 -16 -16 -16 -16 -16 -16 -16 -16 -16 -16 -16 -16 -15 -15 -15 -15
-18 -18 -18 -18 -19 -19 -19 -19 -19 -19 -19 -18 -16 -16 -16 -17 -17 -17 -17 -17 -17 -17 -17 -17 -17 -17 -17 -17 -17 -16 -16 -16 -16 -16 -16 -16 -16 -16 -16 -16 -16 -16 -16 -16
-18 -18 -18 -18 -18 -18 -18 -18 -18 -19 -19 -18 -17 -16 -17 -17 -17 -17 -17 -17 -17 -17 -17 -17 -17 -17 -17 -17 -17 -17 -17 -17 -17 -17 -17 -17 -17 -17 -17 -17 -17 -17 -17 -17
-18 -18 -18 -18 -18 -18 -18 -18 -19 -18 -18 -18 -17 -17 -17 -17 -17 -17 -17 -17 -18 -18 -18 -18 -17 -17 -17 -17 -17 -17 -17 -17 -17 -17 -17 -18 -18 -18 -18 -18 -17 -17 -17 -17
-20 -19 -19 -18 -18 -18 -18 -18 -18 -18 -18 -18 -18 -17 -18 -18 -18 -18 -18 -18 -18 -18 -18 -18 -18 -18 -18 -18 -18 -18 -18 -18 -18 -18 -18 -18 -18 -18 -18 -18 -18 -18 -18 -18
-20 -20 -19 -19 -19 -19 -18 -18 -18 -19 -19 -18 -18 -18 -18 -18 -18 -18 -18 -18 -18 -18 -18 -18 -19 -19 -19 -19 -19 -19 -19 -19 -19 -19 -19 -19 -19 -19 -19 -19 -19 -19 -19 -19
-20 -20 -20 -20 -20 -19 -19 -19 -19 -19 -18 -18 -18 -18 -18 -18 -18 -19 -19 -19 -19 -19 -19 -19 -19 -19 -19 -19 -19 -19 -20 -20 -20 -20 -20 -20 -20 -20 -20 -20 -20 -20 -20 -20
-20 -20 -20 -20 -20 -20 -19 -19 -19 -19 -19 -19 -19 -19 -19 -19 -19 -19 -19 -19 -19 -19 -19 -19 -20 -20 -20 -20 -20 -21 -21 -21 -21 -21 -21 -21 -21 -21 -21 -21 -21 -20 -20 -20
-20 -20 -20 -20 -20 -20 -20 -19 -19 -19 -19 -19 -19 -19 -19 -19 -20 -20 -20 -20 -20 -20 -20 -20 -20 -21 -21 -21 -21 -22 -21 -22 -22 -22 -22 -21 -21 -21 -21 -21 -21 -21 -21 -21
-21 -21 -21 -21 -21 -20 -20 -20 -20 -20 -20 -20 -20 -20 -20 -20 -20 -20 -20 -20 -20 -21 -21 -22 -22 -22 -22 -22 -22 -22 -22 -22 -22 -22 -22 -22 -22 -21 -21 -21 -21 -21 -21 -21
-22 -21 -21 -21 -21 -20 -20 -20 -21 -21 -21 -21 -20 -20 -20 -20 -20 -20 -21 -21 -22 -23 -23 -23 -23 -23 -23 -23 -23 -23 -22 -22 -22 -22 -22 -22 -22 -22 -22 -22 -22 -22 -22 -22
-23 -22 -21 -21 -20 -21 -21 -21 -21 -21 -21 -21 -21 -21 -21 -21 -22 -22 -22 -23 -23 -23 -23 -23 -23 -23 -23 -23 -23 -23 -23 -23 -22 -23 -23 -23 -22 -22 -23 -23 -23 -23 -23 -23
-23 -23 -22 -21 -21 -21 -21 -22 -21 -21 -21 -22 -22 -22 -22 -23 -23 -23 -24 -24 -23 -23 -23 -23 -23 -23 -23 -23 -23 -23 -23 -23 -23 -23 -23 -23 -23 -23 -24 -24 -24 -24 -25 -25
-23 -23 -23 -23 -23 -22 -22 -22 -22 -22 -23 -23 -23 -24 -24 -24 -24 -23 -23 -24 -24 -24 -24 -24 -24 -24 -24 -24 -24 -24 -24 -24 -24 -24 -24 -25 -25 -26 -26 -27 -27 -27 -28 -28
-24 -24 -23 -24 -24 -23 -23 -24 -24 -24 -24 -24 -24 -24 -24 -24 -24 -24 -24 -24 -24 -24 -24 -24 -24 -24 -24 -24 -24 -24 -25 -25 -25 -25 -26 -27 -28 -28 -28 -28 -28 -28 -29 -29
-25 -25 -25 -24 -24 -24 -25 -25 -25 -25 -24 -24 -24 -24 -24 -24 -25 -24 -25 -25 -25 -25 -25 -25 -25 -25 -25 -25 -25 -25 -26 -27 -27 -28 -28 -29 -29 -29 -29 -29 -30 -30 -30 -30
-26 -25 -25 -25 -25 -25 -25 -25 -25 -25 -25 -25 -25 -25 -25 -25 -25 -25 -25 -25 -25 -25 -25 -25 -25 -26 -26 -27 -28 -28 -28 -28 -28 -29 -29 -29 -30 -30 -30 -31 -31 -32 -32 -32
-26 -26 -26 -26 -26 -26 -26 -26 -26 -25 -25 -25 -25 -25 -25 -25 -25 -26 -26 -26 -26 -26 -26 -26 -27 -28 -28 -28 -29 -29 -29 -29 -29 -30 -30 -30 -31 -31 -32 -32 -33 -33 -33 -34
Height
5659 5662 5667 5674 5677 5679 5683 5686 5689 5694 5699 5704 5709 5714 5719 5723 5726 5730 5733 5737 5741 5744 5747 5750 5753 5756 5759 5761 5764 5767 5769 5772 5774 5776 5779 5781 5782 5784 5786 5787 5789 5790 5791 5792
5654 5660 5667 5668 5669 5672 5676 5679 5683 5688 5693 5698 5703 5708 5713 5717 5721 5724 5728 5731 5735 5739 5742 5744 5748 5751 5753 5756 5758 5760 5763 5766 5768 5770 5772 5774 5776 5778 5780 5781 5782 5783 5785 5786
5652 5660 5660 5661 5663 5666 5670 5674 5679 5684 5689 5692 5696 5699 5705 5709 5713 5717 5721 5725 5729 5733 5736 5739 5742 5745 5748 5750 5752 5754 5757 5759 5761 5764 5765 5768 5770 5772 5773 5774 5776 5777 5778 5779
5646 5651 5653 5656 5660 5663 5666 5670 5673 5677 5681 5684 5688 5691 5696 5702 5705 5709 5714 5718 5722 5725 5728 5732 5735 5738 5741 5744 5746 5748 5750 5752 5754 5757 5758 5760 5763 5764 5766 5768 5769 5770 5771 5772
5646 5647 5649 5651 5658 5659 5663 5667 5668 5670 5672 5675 5680 5683 5690 5694 5699 5703 5707 5711 5715 5718 5721 5725 5728 5731 5733 5736 5738 5740 5743 5745 5747 5749 5751 5752 5754 5755 5757 5759 5760 5762 5762 5763
5636 5639 5642 5647 5649 5652 5656 5658 5662 5663 5664 5664 5675 5676 5683 5688 5693 5695 5698 5703 5706 5710 5713 5716 5720 5723 5725 5728 5730 5732 5734 5737 5739 5740 5742 5743 5744 5746 5747 5749 5750 5752 5753 5753
5631 5634 5636 5640 5643 5645 5647 5652 5654 5656 5656 5661 5668 5668 5677 5680 5685 5688 5692 5695 5699 5702 5706 5709 5712 5714 5717 5719 5721 5723 5725 5727 5729 5731 5732 5733 5734 5735 5736 5737 5738 5739 5741 5742
5624 5627 5631 5634 5637 5641 5644 5647 5648 5649 5651 5655 5660 5660 5669 5673 5678 5683 5686 5689 5693 5695 5698 5701 5703 5706 5708 5710 5712 5714 5715 5717 5719 5720 5721 5722 5723 5724 5725 5725 5726 5727 5727 5728
5618 5620 5624 5627 5630 5634 5636 5635 5647 5646 5647 5648 5652 5656 5662 5667 5671 5676 5679 5683 5685 5687 5690 5692 5694 5696 5698 5700 5702 5703 5705 5706 5708 5709 5710 5711 5712 5712 5712 5713 5713 5714 5714 5715
5610 5613 5615 5618 5622 5625 5628 5636 5636 5637 5638 5639 5643 5646 5652 5660 5664 5667 5671 5674 5676 5678 5680 5682 5684 5686 5688 5690 5692 5693 5694 5695 5696 5697 5698 5698 5699 5699 5699 5699 5699 5700 5700 5700
5601 5604 5608 5611 5613 5617 5620 5623 5626 5630 5631 5632 5635 5639 5645 5651 5656 5659 5661 5663 5666 5669 5671 5673 5674 5676 5677 5679 5680 5681 5682 5683 5683 5684 5684 5685 5685 5685 5685 5685 5685 5685 5684 5684
5592 5593 5597 5601 5605 5609 5612 5616 5618 5620 5623 5625 5628 5632 5637 5641 5646 5649 5652 5654 5656 5658 5660 5662 5663 5665 5666 5667 5668 5668 5669 5670 5670 5671 5671 5671 5671 5671 5670 5670 5669 5668 5667 5667
5583 5583 5587 5591 5595 5598 5601 5606 5610 5612 5615 5617 5619 5621 5628 5631 5635 5638 5641 5643 5645 5646 5648 5650 5651 5652 5653 5654 5655 5655 5656 5656 5656 5656 5656 5655 5655 5654 5653 5652 5651 5650 5649 5647
5573 5575 5577 5582 5587 5590 5593 5598 5601 5604 5605 5608 5610 5613 5617 5622 5625 5626 5630 5632 5634 5635 5636 5637 5638 5639 5640 5641 5641 5642 5642 5642 5641 5641 5640 5639 5638 5637 5636 5634 5633 5631 5630 5628
5562 5566 5569 5572 5576 5578 5581 5585 5589 5592 5597 5598 5605 5605 5608 5611 5614 5616 5618 5620 5621 5622 5624 5625 5626 5627 5627 5628 5628 5627 5627 5626 5625 5624 5623 5622 5620 5618 5616 5614 5612 5610 5608 5605
5552 5555 5559 5562 5565 5568 5571 5575 5578 5582 5585 5588 5592 5595 5598 5601 5603 5605 5607 5608 5609 5610 5612 5613 5613 5614 5614 5614 5613 5613 5612 5611 5609 5607 5606 5604 5602 5600 5597 5595 5592 5589 5586 5582
5541 5546 5549 5551 5555 5558 5560 5565 5569 5573 5577 5580 5582 5587 5588 5591 5592 5593 5594 5596 5598 5599 5599 5600 5600 5600 5600 5599 5599 5598 5597 5594 5592 5590 5588 5585 5582 5579 5576 5573 5569 5565 5561 5558
5531 5535 5538 5541 5544 5545 5552 5555 5559 5563 5566 5569 5572 5575 5577 5578 5580 5582 5583 5584 5585 5585 5586 5586 5587 5587 5587 5586 5585 5583 5582 5579 5576 5573 5569 5566 5562 5557 5553 5548 5544 5539 5535 5531
5519 5523 5527 5530 5533 5537 5541 5545 5549 5552 5556 5559 5561 5563 5565 5567 5568 5570 5571 5571 5572 5573 5574 5574 5574 5574 5573 5572 5569 5566 5564 5561 5557 5553 5547 5543 5539 5534 5528 5522 5516 5511 5507 5501
5510 5512 5517 5520 5522 5525 5530 5533 5537 5539 5545 5548 5550 5552 5554 5556 5557 5559 5560 5561 5562 5562 5562 5562 5560 5559 5557 5555 5551 5546 5542 5538 5535 5530 5523 5517 5511 5506 5499 5492 5486 5479 5474 5470
5501 5504 5507 5508 5511 5515 5520 5523 5526 5531 5540 5537 5540 5543 5545 5547 5549 5550 5551 5552 5552 5551 5550 5548 5545 5542 5539 5536 5532 5525 5519 5515 5511 5505 5498 5490 5482 5477 5470 5464 5456 5451 5445 5440
5492 5494 5498 5501 5504 5508 5512 5515 5520 5523 5524 5528 5531 5534 5536 5539 5540 5541 5541 5541 5540 5539 5537 5534 5529 5525 5520 5516 5512 5504 5496 5493 5487 5482 5473 5464 5456 5448 5442 5436 5429 5422 5417 5412
5481 5486 5490 5495 5497 5501 5503 5507 5511 5514 5518 5521 5525 5527 5529 5530 5531 5531 5530 5529 5527 5525 5522 5518 5513 5507 5500 5497 5492 5485 5475 5470 5464 5457 5448 5439 5431 5422 5415 5408 5402 5396 5388 5382
5471 5476 5480 5485 5489 5493 5497 5501 5504 5508 5512 5515 5517 5519 5520 5520 5520 5519 5518 5516 5513 5510 5507 5502 5497 5490 5481 5476 5469 5462 5454 5447 5441 5434 5425 5415 5406 5397 5389 5381 5372 5366 5359 5353
5463 5468 5473 5477 5482 5486 5490 5494 5498 5501 5504 5506 5508 5509 5509 5509 5509 5508 5506 5503 5498 5495 5490 5485 5478 5471 5462 5455 5446 5437 5430 5423 5417 5409 5399 5389 5380 5372 5363 5354 5345 5338 5331 5323
5455 5461 5466 5471 5475 5479 5484 5487 5491 5494 5496 5497 5499 5500 5499 5498 5497 5494 5491 5487 5483 5478 5473 5466 5458 5451 5443 5435 5426 5414 5406 5398 5390 5382 5372 5362 5353 5344 5334 5326 5320 5308 5301 5295
Wind_Speed
27 30 27 24 28 31 34 35 38 39 39 39 39 37 36 36 36 35 35 33 33 32 32 31 32 31 31 31 31 31 31 30 28 28 28 28 28 28 27 27 27 26 26 26
28 22 22 28 31 32 35 37 38 37 37 37 36 35 34 35 35 35 34 35 33 33 33 33 33 32 32 32 32 32 32 32 31 30 29 29 28 28 29 29 29 29 29 29
24 18 25 32 34 34 35 36 36 35 33 33 33 35 35 35 35 35 34 34 34 33 33 34 34 34 33 33 33 33 33 32 32 31 31 31 31 31 31 31 31 31 32 32
27 27 29 30 33 33 34 34 35 34 35 37 35 38 35 34 35 36 35 35 35 34 34 34 35 35 34 34 34 34 34 34 34 34 34 33 33 33 33 33 34 34 35 35
25 28 30 31 30 33 33 34 36 36 38 39 39 39 36 35 34 33 34 35 35 35 34 34 35 35 35 35 35 36 36 36 36 37 37 37 37 37 37 38 38 38 39 39
32 31 32 30 30 33 35 38 39 39 40 44 37 39 36 34 34 35 35 35 34 34 34 34 34 34 35 36 36 37 38 39 39 40 40 41 41 41 42 42 42 42 42 43
34 34 34 34 33 38 41 40 41 42 44 42 38 41 36 36 35 35 35 36 36 35 35 35 35 36 36 37 38 39 40 41 42 42 43 44 44 45 45 45 46 45 46 46
32 35 33 33 37 36 38 41 44 44 44 42 41 43 39 37 35 34 33 35 35 35 36 35 36 37 38 39 40 41 42 43 44 45 46 47 47 47 48 48 49 49 50 50
32 33 34 34 36 38 40 44 39 43 44 46 42 41 37 36 36 34 33 33 33 34 36 37 38 38 39 41 42 43 44 45 46 47 48 49 50 51 51 52 53 53 54 55
40 40 37 35 38 40 42 38 41 44 46 47 44 42 40 36 35 35 33 34 36 37 38 39 39 40 41 43 44 45 46 47 48 49 50 52 53 53 54 55 56 57 58 59
46 44 42 38 43 40 41 43 45 44 48 48 46 44 40 38 36 36 37 37 37 38 38 40 41 42 43 44 46 46 48 49 50 51 53 54 55 56 57 58 59 61 62 63
42 47 49 46 43 43 40 47 44 46 46 48 47 45 44 40 38 36 37 38 38 39 40 41 42 43 45 46 47 48 49 50 52 53 55 56 58 59 61 63 64 66 67 68
36 41 47 50 50 50 48 44 44 50 44 45 47 49 48 46 45 42 42 42 43 44 44 45 46 47 48 50 50 51 53 55 56 58 59 60 61 63 64 66 67 69 71 72
40 37 40 46 48 49 50 48 46 42 47 50 52 51 48 46 47 47 47 48 49 49 48 48 47 46 46 48 49 51 53 55 57 59 60 62 64 66 68 70 71 72 74 76
43 43 39 37 41 46 51 50 51 51 50 52 51 52 49 46 41 40 40 40 39 42 45 46 47 49 51 52 53 54 55 57 59 60 62 65 67 68 71 73 75 76 78 80
42 37 37 40 36 41 46 44 43 44 45 47 45 42 40 38 39 41 42 43 45 47 48 49 51 52 54 54 55 56 59 60 60 62 65 66 68 69 71 74 76 77 79 81
38 47 38 41 41 39 41 41 42 40 39 40 41 43 40 42 45 45 46 48 50 50 52 53 53 53 53 54 55 55 55 57 60 62 65 67 70 73 75 78 81 83 85 87
49 42 46 43 46 47 43 40 41 41 41 43 44 43 48 48 48 48 49 51 53 52 49 47 44 44 45 47 51 55 59 62 64 67 71 74 77 80 83 85 87 90 91 93
43 49 49 49 51 49 42 43 42 43 44 43 45 46 46 47 49 51 51 46 39 37 38 40 43 46 50 55 59 61 64 68 71 74 78 81 83 86 88 90 92 94 96 98
32 40 47 48 43 42 46 48 48 46 45 46 48 48 47 46 42 39 37 36 36 38 42 46 50 54 57 60 64 67 71 75 77 80 83 86 88 90 92 95 97 98 100 101
36 33 37 49 47 42 43 43 42 44 43 40 38 36 34 32 31 32 34 37 41 45 48 51 55 59 63 67 70 74 77 80 81 83 86 89 92 93 95 96 97 97 96 95
44 36 30 27 27 33 36 36 38 34 33 34 31 29 28 29 33 35 38 43 45 48 52 58 62 65 68 71 73 77 80 82 85 87 89 90 89 89 88 88 88 88 89 89
40 43 36 27 22 24 26 27 24 22 21 22 25 28 31 34 37 39 41 45 51 54 57 60 63 67 71 73 75 78 82 84 85 84 82 81 82 84 87 88 89 89 90 91
37 36 35 30 27 25 24 24 24 25 27 29 30 32 33 34 37 41 46 50 53 56 59 61 65 68 72 75 77 79 78 77 77 78 79 81 83 86 87 88 89 90 90 89
36 34 33 32 30 29 29 28 27 27 29 30 30 31 33 38 43 47 50 51 54 57 60 63 66 68 69 70 71 73 75 77 78 80 82 84 85 86 87 88 88 87 87 88
34 32 32 31 31 30 28 27 28 29 29 29 31 34 38 42 45 47 49 53 56 59 61 63 64 64 66 68 70 73 76 79 80 82 84 86 87 86 85 85 84 84 84 82
Wind_Direction
230 233 234 235 233 228 226 225 227 227 225 225 227 230 231 231 233 232 232 234 233 229 228 226 226 225 226 226 228 231 234 237 237 239 243 245 248 251 251 252 253 253 254 255
229 232 225 224 224 227 225 223 225 225 226 228 230 232 231 234 235 235 235 233 234 232 232 231 230 229 229 230 231 234 236 239 241 242 244 246 248 250 252 253 255 256 257 257
235 224 230 225 224 225 227 224 226 228 226 231 232 231 230 232 235 236 235 236 235 236 235 234 233 232 232 233 234 236 239 241 243 245 247 248 250 252 253 255 257 258 259 260
228 221 227 228 232 231 229 230 226 226 225 226 227 230 229 232 235 239 240 238 238 237 237 237 236 236 236 236 236 238 240 242 245 247 249 251 252 253 254 255 258 260 262 263
231 230 230 232 232 229 227 230 231 229 229 229 223 233 226 229 233 240 244 243 242 242 242 241 241 241 241 241 240 240 242 245 247 249 251 254 255 256 257 257 258 260 262 264
226 225 227 225 222 226 230 227 229 230 232 232 225 233 229 230 232 234 238 240 240 240 241 243 244 245 245 246 246 246 247 249 251 253 254 256 258 259 261 262 262 263 264 264
231 229 227 221 225 224 227 228 231 231 233 233 230 234 234 234 233 235 238 240 240 239 240 243 245 247 247 247 248 249 249 251 254 256 258 259 260 261 262 263 264 265 265 266
231 232 233 230 226 232 239 234 235 233 233 236 233 236 237 238 238 236 239 242 243 244 243 243 244 246 247 248 248 250 252 253 254 256 258 260 261 262 263 264 265 265 266 266
233 233 229 230 229 229 230 232 236 241 242 244 241 240 241 242 242 242 243 242 243 245 245 246 247 247 248 249 251 251 252 254 256 257 258 260 261 262 263 264 265 266 267 268
227 230 235 225 228 231 233 235 235 237 242 244 243 242 242 243 247 248 248 248 248 248 249 248 249 249 250 251 252 254 256 258 259 260 261 262 263 264 265 266 267 269 269 270
223 229 231 227 227 232 236 236 236 237 243 246 250 250 251 248 247 250 251 251 253 253 253 252 253 253 254 255 257 258 259 261 262 263 264 265 266 267 267 268 268 269 270 271
238 231 228 231 230 226 233 236 239 242 247 250 254 256 259 260 258 257 255 256 256 256 256 256 257 257 258 259 260 261 262 263 263 264 265 266 267 268 269 270 271 271 271 271
243 243 239 230 230 228 228 233 238 243 246 249 253 257 254 257 258 259 260 259 260 260 260 260 260 261 261 261 262 263 263 263 263 264 265 267 268 269 269 270 270 270 271 271
244 243 245 242 240 236 232 234 235 234 240 244 248 252 254 255 255 256 257 259 260 263 265 265 263 260 258 258 259 261 262 264 267 268 270 270 271 271 272 273 274 274 274 275
249 247 246 247 248 245 240 240 240 242 241 242 246 252 254 259 263 263 261 259 258 256 255 255 256 258 260 263 265 267 268 269 270 271 272 273 274 275 275 276 276 277 277 277
247 252 246 247 246 246 248 245 245 248 250 252 251 254 257 258 258 258 257 255 253 255 258 260 261 264 265 267 268 269 269 270 271 272 273 275 275 275 276 277 277 278 278 278
237 241 250 252 252 254 248 245 245 247 250 254 255 251 252 254 257 256 257 260 263 263 263 264 264 265 265 266 269 270 270 271 273 274 276 277 279 280 281 281 281 281 281 280
238 233 246 247 251 250 246 248 249 249 251 253 252 250 249 255 260 263 263 262 262 263 264 266 266 267 267 270 272 272 274 276 277 279 280 281 282 283 283 283 282 282 282 281
243 241 239 244 249 248 246 251 248 249 249 251 252 252 254 254 256 261 263 263 263 263 265 268 270 272 273 274 276 278 279 280 281 282 283 283 283 283 284 283 283 283 282 282
253 244 241 243 243 241 241 246 248 246 245 246 247 248 250 254 259 260 263 267 271 273 274 274 275 277 278 279 281 281 282 282 283 284 285 285 285 285 285 285 284 284 284 284
252 254 241 238 237 234 236 236 239 245 247 247 250 253 254 257 259 262 265 269 272 274 276 278 279 280 281 282 283 284 285 285 286 286 286 286 286 286 286 286 286 286 285 285
239 241 239 236 235 229 233 239 244 242 241 242 241 247 253 257 261 263 267 271 274 275 277 279 281 283 284 285 285 286 286 286 286 287 287 287 288 288 287 287 287 286 286 286
239 244 242 237 232 235 226 230 235 241 246 252 254 254 256 258 261 265 268 272 276 279 281 282 283 285 285 285 285 286 287 287 288 289 289 289 289 288 288 288 287 287 287 287
235 236 243 246 243 232 232 233 236 241 246 250 253 257 260 263 268 273 277 279 281 282 283 283 284 285 287 287 288 289 289 289 290 290 290 290 290 289 289 289 289 288 288 287
231 230 233 238 237 235 231 234 242 250 254 254 257 262 266 272 276 279 281 281 282 283 284 286 287 289 290 292 292 292 292 292 292 292 292 291 290 289 289 289 289 289 289 288
225 222 222 221 223 230 235 242 247 248 251 256 262 270 277 279 282 282 283 285 286 287 289 292 293 293 294 295 295 295 295 295 294 293 292 292 292 291 291 290 289 290 289 288